Regional Weather Roundup
Issued by NWS Little Rock, AR

Home | Current Version | Previous Version | Text Only | Print | Product List | Glossary Off
Versions: 1 2 3 4 5 6 7 8 9 10 11 12 13 14 15 16 17 18 19 20 21 22 23 24 25 26 27 28 29 30 31 32 33 34 35 36 37 38 39 40 41 42 43 44 45 46 47 48 49 50

000
ASUS44 KLZK 200305
RWRLZK

WEATHER ROUNDUP FOR ARKANSAS
NATIONAL WEATHER SERVICE LITTLE ROCK AR
1000 PM CDT SUN OCT 19 2014

NOTE: "FAIR" INDICATES FEW OR NO CLOUDS BELOW 12,000 FEET WITH NO
SIGNIFICANT WEATHER AND/OR OBSTRUCTIONS TO VISIBILITY.

ARZ001-003-010-029-200400-
NORTHWEST ARKANSAS

CITY           SKY/WX    TMP DP  RH WIND       PRES   REMARKS
FAYETTEVILLE   PTCLDY    52  50  93 CALM      30.09S
FORT SMITH     CLEAR     58  51  78 NE6       30.08S
HARRISON       CLEAR     52  50  93 CALM      30.09S
BENTONVILLE    PTCLDY    57  48  72 S3        30.09S
ROGERS         PTCLDY    56  50  80 S5        30.10S
SILOAM SPGS    PTCLDY    55  46  71 SE6       30.09S
HIGHFILL       PTCLDY    56  50  80 S3        30.08S
$$

ARZ004-005-016-200400-
NORTH CENTRAL ARKANSAS

CITY           SKY/WX    TMP DP  RH WIND       PRES   REMARKS
BATESVILLE     PTCLDY    55  45  67 SE3       30.10S
FLIPPIN        PTCLDY    50  45  81 CALM      30.10R
MTN HOME       PTCLDY    55  48  77 SE3       30.08F
$$

ARZ040-041-200400-
WEST CENTRAL ARKANSAS

CITY           SKY/WX    TMP DP  RH WIND       PRES   REMARKS
MENA           CLEAR     54  52  94 CALM      30.11R
MOUNT IDA      CLEAR     52  50  93 CALM      30.08S
$$

ARZ009-017-025-026-028-200400-
NORTHEAST ARKANSAS

CITY           SKY/WX    TMP DP  RH WIND       PRES   REMARKS
CORNING        FAIR      54  52  94 S3        30.10S
JONESBORO      PTCLDY    52  49  89 CALM      30.09F
NEWPORT        PTCLDY    54  50  86 S5        30.11F
WALNUT RIDGE   PTCLDY    55  41  58 SE3       30.09F
BLYTHEVILLE    CLOUDY    55  49  80 SW3       30.11S
$$

ARZ022-023-033-042-044-200400-
CENTRAL ARKANSAS

CITY           SKY/WX    TMP DP  RH WIND       PRES   REMARKS
LITTLE ROCK    CLEAR     54  48  80 CALM      30.11S
N LITTLE ROCK  CLEAR     57  48  72 SE3       30.11S
JACKSONVILLE   CLEAR     50  48  92 CALM      30.11S
SEARCY         CLEAR     49  48  97 CALM      30.12S
HOT SPRINGS    CLEAR     53  49  86 E3        30.11S
RUSSELLVILLE   CLEAR     51  49  92 CALM      30.10R
$$

ARZ036-200400-
EAST ARKANSAS

CITY           SKY/WX    TMP DP  RH WIND       PRES   REMARKS
WEST MEMPHIS   PTCLDY    51  50  96 CALM      30.10S
$$

ARZ050-053-066-070-073-200400-
SOUTHWEST ARKANSAS

CITY           SKY/WX    TMP DP  RH WIND       PRES   REMARKS
ARKADELPHIA    FAIR      55  55 100 CALM      30.11S
CAMDEN         CLEAR     50  48  93 CALM      30.11S FOG
TEXARKANA      CLEAR     55  51  86 SE3       30.10S
EL DORADO      CLEAR     50  49  96 CALM      30.11S
DE QUEEN       CLEAR     51  51 100 CALM      30.09R
$$

ARZ056-057-069-200400-
SOUTHEAST ARKANSAS

CITY           SKY/WX    TMP DP  RH WIND       PRES   REMARKS
PINE BLUFF     CLEAR     51  48  89 CALM      30.11S
STUTTGART      CLEAR     54  46  76 CALM      30.12S
MONTICELLO     CLEAR     51  48  89 CALM      30.11S

$$




USA.gov is the U.S. government's official web portal to all federal, state and local government web resources and services.